TimeAKST,TemperatureF,Dew PointF,Humidity,Sea Level PressureIn,VisibilityMPH,Wind Direction,Wind SpeedMPH,Gust SpeedMPH,PrecipitationIn,Events,Conditions,WindDirDegrees,DateUTC
12:06 AM,10.4,8.6,92,29.86,1.2,NNE,9.2,17.3,N/A,Snow,Snow,30,2013-01-10 09:06:00
12:46 AM,10.4,8.6,92,29.86,1.0,NNE,10.4,17.3,N/A,Snow,Snow,30,2013-01-10 09:46:00
12:55 AM,10.4,8.8,93,29.87,1.2,NNE,9.2,17.3,N/A,Snow,Snow,30,2013-01-10 09:55:00
1:46 AM,10.4,8.6,92,29.88,0.8,NNE,8.1,-,N/A,Snow,Snow,30,2013-01-10 10:46:00
1:55 AM,9.7,8.2,94,29.88,1.0,NNE,9.2,-,N/A,Snow,Snow,20,2013-01-10 10:55:00
2:26 AM,10.4,8.6,92,29.89,2.0,NNE,8.1,16.1,N/A,Snow,Snow,30,2013-01-10 11:26:00
2:46 AM,10.4,8.6,92,29.90,3.0,NNE,5.8,15.0,N/A,Snow,Light Snow,30,2013-01-10 11:46:00
3:06 AM,10.4,8.6,92,29.90,1.8,Variable,5.8,-,N/A,Snow,Light Snow,0,2013-01-10 12:06:00
3:26 AM,10.4,8.6,92,29.90,2.0,NNE,5.8,-,N/A,Snow,Light Snow,30,2013-01-10 12:26:00
3:55 AM,9.9,8.4,94,29.91,1.8,NNE,4.6,-,N/A,Snow,Light Snow,30,2013-01-10 12:55:00
4:06 AM,10.4,8.6,92,29.91,3.0,Variable,5.8,-,N/A,Snow,Light Snow,0,2013-01-10 13:06:00
4:26 AM,8.6,6.8,92,29.91,3.0,NNE,4.6,-,N/A,Snow,Light Snow,30,2013-01-10 13:26:00
4:46 AM,8.6,6.8,92,29.92,1.0,NNE,4.6,-,N/A,Snow,Snow,30,2013-01-10 13:46:00
4:55 AM,9.1,7.5,93,29.92,1.2,Variable,2.3,-,N/A,Snow,Snow,0,2013-01-10 13:55:00
5:06 AM,8.6,8.6,100,29.92,1.2,North,1.2,-,N/A,Snow,Light Snow,10,2013-01-10 14:06:00
5:26 AM,10.4,8.6,92,29.93,1.5,SSW,2.3,-,N/A,Snow,Light Snow,210,2013-01-10 14:26:00
5:46 AM,8.6,8.6,100,29.94,9.0,SW,4.6,-,N/A,Snow,Light Snow,230,2013-01-10 14:46:00
5:55 AM,9.5,7.9,93,29.94,10.0,SW,4.6,-,N/A,Snow,Light Snow,220,2013-01-10 14:55:00
6:55 AM,11.5,10.4,95,29.96,10.0,South,5.8,-,N/A,,Overcast,180,2013-01-10 15:55:00
7:55 AM,11.8,10.4,94,29.99,10.0,South,6.9,-,N/A,,Mostly Cloudy,190,2013-01-10 16:55:00
8:46 AM,17.6,17.6,100,30.01,10.0,WSW,4.6,-,N/A,,Overcast,250,2013-01-10 17:46:00
8:55 AM,18.5,17.6,96,30.01,10.0,SSW,4.6,-,N/A,,Overcast,210,2013-01-10 17:55:00
9:46 AM,19.4,19.4,100,30.03,10.0,WSW,3.5,-,N/A,,Overcast,240,2013-01-10 18:46:00
9:55 AM,20.1,19.8,99,30.03,10.0,WSW,5.8,-,N/A,,Overcast,250,2013-01-10 18:55:00
10:06 AM,21.2,19.4,93,30.03,9.0,WSW,4.6,-,N/A,Snow,Light Snow Showers,250,2013-01-10 19:06:00
10:26 AM,21.2,21.2,100,30.03,3.0,West,4.6,-,N/A,,Overcast,260,2013-01-10 19:26:00
10:55 AM,20.8,20.5,99,30.04,10.0,SW,4.6,-,N/A,,Overcast,220,2013-01-10 19:55:00
11:46 AM,21.2,21.2,100,30.06,4.0,Variable,4.6,-,N/A,Snow,Light Snow,0,2013-01-10 20:46:00
11:55 AM,22.1,21.9,99,30.06,3.0,SSW,4.6,-,N/A,Snow,Light Snow,210,2013-01-10 20:55:00
12:26 PM,23.0,23.0,100,30.06,7.0,WSW,8.1,-,N/A,Snow,Light Snow,240,2013-01-10 21:26:00
12:55 PM,23.4,23.2,99,30.06,8.0,WSW,6.9,-,N/A,Snow,Light Snow,240,2013-01-10 21:55:00
1:46 PM,24.8,23.0,93,30.06,10.0,SW,6.9,-,N/A,Snow,Light Snow Showers,220,2013-01-10 22:46:00
1:55 PM,23.9,23.7,99,30.05,10.0,SW,5.8,-,N/A,Snow,Light Snow Showers,220,2013-01-10 22:55:00
2:06 PM,24.8,24.8,100,30.05,10.0,SW,5.8,-,N/A,Snow,Light Snow Showers,230,2013-01-10 23:06:00
2:26 PM,24.8,24.8,100,30.04,10.0,WSW,4.6,-,N/A,,Overcast,240,2013-01-10 23:26:00
2:46 PM,17.6,15.8,93,30.05,10.0,East,3.5,-,N/A,,Overcast,100,2013-01-10 23:46:00
2:55 PM,17.4,17.4,100,30.05,10.0,Variable,1.2,-,N/A,,Overcast,0,2013-01-10 23:55:00
3:46 PM,15.8,14.0,93,30.05,10.0,NE,4.6,-,N/A,,Overcast,40,2013-01-11 00:46:00
3:55 PM,15.1,14.4,97,30.05,10.0,NE,5.8,-,0.00,,Overcast,50,2013-01-11 00:55:00
4:46 PM,14.0,14.0,100,30.04,10.0,Variable,5.8,-,N/A,,Overcast,0,2013-01-11 01:46:00
4:55 PM,14.7,13.8,96,30.04,10.0,NE,4.6,-,N/A,,Overcast,40,2013-01-11 01:55:00
5:55 PM,16.3,15.8,98,30.01,5.0,NNE,4.6,-,N/A,,Overcast,20,2013-01-11 02:55:00
6:06 PM,17.6,15.8,93,30.01,6.0,NNE,3.5,-,N/A,,Overcast,30,2013-01-11 03:06:00
6:46 PM,17.6,17.6,100,29.99,3.0,Variable,3.5,-,N/A,,Mist,0,2013-01-11 03:46:00
6:55 PM,18.3,17.6,97,29.99,2.5,NE,4.6,-,N/A,,Mist,40,2013-01-11 03:55:00
7:06 PM,19.4,17.6,93,29.98,7.0,NE,3.5,-,N/A,,Overcast,50,2013-01-11 04:06:00
7:26 PM,17.6,15.8,93,29.97,6.0,Variable,5.8,-,N/A,,Overcast,0,2013-01-11 04:26:00
7:55 PM,15.6,15.4,99,29.94,10.0,NNE,5.8,-,N/A,,Overcast,30,2013-01-11 04:55:00
8:06 PM,17.6,17.6,100,29.94,1.2,Variable,6.9,-,N/A,,Overcast,0,2013-01-11 05:06:00
8:26 PM,17.6,17.6,100,29.93,0.8,ENE,4.6,-,N/A,Fog,Light Freezing Fog,60,2013-01-11 05:26:00
8:46 PM,17.6,17.6,100,29.91,1.5,NNE,5.8,-,N/A,,Mist,30,2013-01-11 05:46:00
8:55 PM,18.7,18.7,100,29.91,4.0,NNE,5.8,-,N/A,,Mostly Cloudy,20,2013-01-11 05:55:00
9:06 PM,19.4,19.4,100,29.90,10.0,Variable,5.8,-,N/A,,Mostly Cloudy,0,2013-01-11 06:06:00
9:55 PM,20.5,20.1,99,29.86,10.0,Variable,5.8,-,N/A,,Mostly Cloudy,0,2013-01-11 06:55:00
10:06 PM,21.2,19.4,93,29.86,10.0,NE,10.4,13.8,N/A,,Mostly Cloudy,50,2013-01-11 07:06:00
10:55 PM,19.2,18.5,97,29.85,10.0,NNE,6.9,-,N/A,,Mostly Cloudy,30,2013-01-11 07:55:00
11:06 PM,19.4,17.6,93,29.85,10.0,NE,4.6,-,N/A,,Mostly Cloudy,50,2013-01-11 08:06:00
11:55 PM,19.0,18.5,98,29.82,10.0,NNE,5.8,-,N/A,,Mostly Cloudy,30,2013-01-11 08:55:00